[[{"header":{"parameterUnit":"m.s-1","parameterCategory":1,"la1":30.2991,"la2":30.254,"lo1":-89.0895,"lo2":-89.0444,"dy":0.0017,"dx":0.0017,"nx":28,"ny":28,"refTime":"2025-06-02T03:00:00:Z","depth":0,"parameterNumber":2,"parameterNumberName":"U-component_of_WINDS"},"data":[0,0,0,0,0,0,0,0,0,0,0,0,0,0,0,0,0,0,0,0,0,0,0,0,0,0,0,0,0,0,0,0,0,0,0,0,0,0,0,0,0,0,0,0,0,0,0,0,0,0,0,0,0,0,0,0,0,0,-5.1483,-5.1483,0,-5.1503,-5.1503,-5.1503,-5.1337,-5.1333,-5.1328,-5.1324,-5.1342,-5.1347,-5.1351,0,0,0,0,0,0,0,0,0,0,0,0,0,-5.13,-5.1304,-5.1483,-5.1483,-5.1483,-5.1503,-5.1503,-5.1503,-5.1338,-5.1333,-5.1327,-5.1322,-5.1341,-5.1346,-5.1352,0,0,0,0,0,0,0,0,0,0,0,0,0,-5.1355,-5.1305,-5.1483,-5.1403,-5.1396,-5.1503,-5.1503,-5.1503,-5.1339,-5.1332,-5.1325,-5.1319,-5.1339,-5.1346,-5.1353,-5.1535,0,0,-5.1375,-5.1378,0,0,0,0,0,0,0,0,-5.1352,-5.1362,-5.1415,-5.1409,-5.1402,-5.141,-5.1445,-5.1514,-5.1341,-5.1361,-5.1324,-5.1316,-5.137,-5.1374,-5.1393,-5.1536,-5.1537,-5.1375,-5.138,-5.1383,-5.1385,0,0,0,0,0,0,0,-5.1349,-5.136,-5.149,-5.1416,-5.1408,-5.1366,-5.1366,-5.1457,-5.1404,-5.1359,-5.1347,-5.1351,-5.1365,-5.1387,-5.1392,-5.1537,-5.1375,-5.1381,-5.1386,-5.1389,-5.1828,-5.1835,0,0,0,0,0,0,-5.1356,-5.1358,-5.149,-5.1491,-5.136,-5.1375,-5.1375,-5.1415,-5.1403,-5.1394,-5.1357,-5.1344,-5.1378,-5.1384,-5.1393,-5.1602,-5.1383,-5.1389,-5.1393,-5.182,-5.1829,-5.1837,0,0,0,0,0,0,-5.1353,-5.1369,-5.1489,-5.1422,-5.1434,-5.1385,-5.1431,-5.1419,-5.144,-5.1402,-5.1391,-5.1389,-5.1373,-5.1382,-5.15,-5.1601,-5.1393,-5.1399,-5.1812,-5.1823,-5.1833,-5.2026,0,0,0,0,0,0,-5.1348,-5.1369,-5.1438,-5.1424,-5.1438,-5.1598,-5.1437,-5.1424,-5.1453,-5.1435,-5.1429,-5.1421,-5.1368,-5.1491,-5.1508,-5.1607,-5.1405,-5.1802,-5.1817,-5.183,-5.201,-5.2042,-5.2069,0,0,0,0,0,-5.1342,-5.1492,-5.1443,-5.146,-5.1524,-5.1604,-5.1612,-5.1548,-5.1462,-5.153,-5.1506,-5.1421,-5.1588,-5.1504,-5.1522,-5.1625,-5.1796,-5.1813,-5.1829,-5.1997,-5.2036,-5.2068,0,0,0,0,0,0,-5.1518,-5.1489,-5.1434,-5.1584,-5.1598,-5.1576,-5.166,-5.1592,-5.163,-5.1612,-5.1531,-5.1531,-5.1662,-5.1656,-5.1563,-5.1799,-5.1676,-5.1697,-5.1798,-5.1835,-5.1864,-5.1861,-5.1411,0,0,0,0,0,-5.1575,-5.1644,-5.1614,-5.1749,-5.1759,-5.171,-5.1742,-5.1692,-5.1703,-5.1708,-5.1692,-5.1705,-5.1759,-5.1797,-5.1846,-5.201,-5.2004,-5.2089,-5.2119,-5.2143,-5.2161,-5.2244,-5.228,-5.1892,-5.1892,-5.1891,0,0,-5.1692,-5.1684,-5.1732,-5.1784,-5.1789,-5.186,-5.1715,-5.1797,-5.1848,-5.172,-5.1829,-5.1819,-5.1828,-5.1969,-5.203,-5.1967,-5.2268,-5.2165,-5.2184,-5.2188,-5.2265,-5.2302,-5.2334,-5.1903,-5.1901,-5.1899,0,0,-5.194,-5.1944,-5.2055,-5.2063,-5.2072,-5.2038,-5.2066,-5.2054,-5.2042,-5.2151,-5.2055,-5.2116,-5.2213,-5.2223,-5.224,-5.2494,-5.2416,-5.2513,-5.2665,-5.2747,-5.2778,-5.2804,-5.2891,-5.2924,-5.2531,-5.2532,-5.2532,0,-5.2084,-5.2188,-5.212,-5.2208,-5.2233,-5.2121,-5.2232,-5.2243,-5.2269,-5.2287,-5.2218,-5.2336,-5.2335,-5.2475,-5.2537,-5.2556,-5.2582,-5.251,-5.2779,-5.2805,-5.2829,-5.291,-5.2944,-5.2543,-5.2542,-5.254,-5.2539,0,-5.2363,-5.2437,-5.2525,-5.2552,-5.2587,-5.2687,-5.2633,-5.2677,-5.2625,-5.2598,-5.2709,-5.2704,-5.2749,-5.2779,-5.2729,-5.2912,-5.2873,-5.2793,-5.2667,-5.2878,-5.2953,-5.2985,-5.2559,-5.2555,-5.2552,-5.2549,0,0,-5.272,-5.2708,-5.2742,-5.2751,-5.2754,-5.2809,-5.2904,-5.2948,-5.2985,-5.3008,-5.3082,-5.3168,-5.3093,-5.3114,-5.3064,-5.3137,-5.3333,-5.3047,-5.3046,-5.3097,-5.3531,-5.3588,-5.3625,-5.3284,-5.329,-5.3295,-5.3529,0,-5.2959,-5.3118,-5.306,-5.3223,-5.3288,-5.3184,-5.3265,-5.3276,-5.3254,-5.3306,-5.3281,-5.3342,-5.3241,-5.3252,-5.332,-5.3295,-5.3419,-5.3278,-5.335,-5.3354,-5.3347,-5.3665,-5.3726,-5.3947,-5.3558,-5.3563,-5.3567,0,-5.3258,-5.3291,-5.3461,-5.3451,-5.3476,-5.3551,-5.3585,-5.3638,-5.3647,-5.3625,-5.3649,-5.3584,-5.3674,-5.3552,-5.3673,-5.3579,-5.3606,-5.3599,-5.3606,-5.3606,-5.347,-5.3671,-5.4016,-5.4048,-5.3613,-5.3609,-5.3606,0,-5.3496,-5.3584,-5.3696,-5.3709,-5.3701,-5.3755,-5.3754,-5.3756,-5.3786,-5.3817,-5.3835,-5.3877,-5.3899,-5.3932,-5.3879,-5.3796,-5.4008,-5.3882,-5.399,-5.3991,-5.4035,-5.4032,-5.4386,-5.4061,-5.406,-5.406,-5.4059,0,-5.3766,-5.3873,-5.3803,-5.3871,-5.3987,-5.392,-5.4037,-5.4024,-5.4027,-5.409,-5.4004,-5.4065,-5.3994,-5.4048,-5.4008,-5.4113,-5.4125,-5.4108,-5.4095,-5.4113,-5.4115,-5.4126,-5.4108,-5.4068,-5.4066,-5.4065,-5.4063,0,-5.405,-5.4008,-5.4122,-5.4106,-5.4104,-5.419,-5.4175,-5.4237,-5.421,-5.4291,-5.4307,-5.4264,-5.4323,-5.4275,-5.4333,-5.4305,-5.4444,-5.4411,-5.444,-5.4429,-5.4539,-5.4528,-5.4908,-5.4953,-5.4604,-5.4607,-5.461,0,-5.4223,-5.4302,-5.4295,-5.4331,-5.4336,-5.4396,-5.4426,-5.4363,-5.4398,-5.4414,-5.4474,-5.4526,-5.4563,-5.4663,-5.4636,-5.468,-5.4645,-5.4776,-5.4651,-5.4666,-5.4642,-5.4636,-5.4642,-5.48,-5.4804,-5.4807,-5.481,0,-5.4533,-5.4508,-5.4555,-5.4595,-5.4633,-5.4661,-5.4682,-5.4717,-5.4653,-5.4696,-5.4756,-5.4786,-5.4845,-5.4896,-5.4931,-5.4929,-5.4858,-5.485,-5.4877,-5.4893,-5.4905,-5.4896,-5.4504,-5.4841,-5.4837,-5.4835,-5.4834,-5.4832,-5.4763,-5.4828,-5.4832,-5.4887,-5.4897,-5.4919,-5.4975,-5.4956,-5.5004,-5.5047,-5.5008,-5.5079,-5.5085,-5.5125,-5.5131,-5.5185,-5.5131,-5.5171,-5.518,-5.5189,-5.5203,-5.4901,-5.5192,-5.5191,-5.519,-5.519,-5.5189,0,-5.5065,-5.5063,-5.5114,-5.5146,-5.5189,-5.5122,-5.5141,-5.5181,-5.5245,-5.5257,-5.5296,-5.5364,-5.5414,-5.5393,-5.5436,-5.5483,-5.5452,-5.5496,-5.549,-5.549,-5.5251,-5.5222,-5.5521,-5.5521,-5.5521,-5.5521,-5.5521,-5.5521,-5.5226,-5.5331,-5.5307,-5.5416,-5.5413,-5.5482,-5.5499,-5.5518,-5.5527,-5.5607,-5.5648,-5.5634,-5.5632,-5.5675,-5.5717,-5.5709,-5.5728,-5.5783,-5.5764,-5.554,-5.5507,-5.5476,-5.5447,-5.5789,-5.5789,-5.5997,-5.5999,-5.6]},{"header":{"parameterUnit":"m.s-1","parameterCategory":1,"la1":30.2991,"la2":30.254,"lo1":-89.0895,"lo2":-89.0444,"dy":0.0017,"dx":0.0017,"nx":28,"ny":28,"refTime":"2025-06-02T03:00:00:Z","depth":0,"parameterNumber":3,"parameterNumberName":"V-component_of_WINDS"},"data":[0,0,0,0,0,0,0,0,0,0,0,0,0,0,0,0,0,0,0,0,0,0,0,0,0,0,0,0,0,0,0,0,0,0,0,0,0,0,0,0,0,0,0,0,0,0,0,0,0,0,0,0,0,0,0,0,0,0,1.1566,1.1565,0,1.1493,1.1492,1.1491,1.1393,1.1391,1.1389,1.1388,1.1312,1.1311,1.1311,0,0,0,0,0,0,0,0,0,0,0,0,0,1.162,1.162,1.1566,1.1565,1.1564,1.1493,1.1492,1.1491,1.1393,1.1391,1.1389,1.1387,1.1312,1.1311,1.1311,0,0,0,0,0,0,0,0,0,0,0,0,0,1.1577,1.1619,1.1566,1.1507,1.1501,1.1493,1.1492,1.149,1.1393,1.1391,1.1388,1.1386,1.1312,1.1311,1.1311,1.1355,0,0,1.1308,1.1308,0,0,0,0,0,0,0,0,1.1579,1.1575,1.1516,1.1511,1.1504,1.1449,1.1483,1.1445,1.1394,1.1434,1.1388,1.1385,1.1359,1.1355,1.1346,1.1351,1.1348,1.1308,1.1308,1.1307,1.1307,0,0,0,0,0,0,0,1.1582,1.1577,1.1537,1.1515,1.1508,1.1483,1.1475,1.1475,1.1411,1.143,1.1423,1.1416,1.1356,1.1347,1.1344,1.1347,1.1308,1.1308,1.1307,1.1307,1.1385,1.1387,0,0,0,0,0,0,1.1594,1.1581,1.1539,1.1534,1.1536,1.1484,1.1474,1.1469,1.1411,1.14,1.1418,1.1412,1.135,1.1345,1.1341,1.1388,1.1307,1.1307,1.1306,1.1382,1.1385,1.1388,0,0,0,0,0,0,1.1596,1.1592,1.1542,1.1556,1.1547,1.1486,1.1481,1.1469,1.146,1.1402,1.139,1.1421,1.1348,1.1342,1.1352,1.1384,1.1306,1.1306,1.1379,1.1383,1.1386,1.1484,0,0,0,0,0,0,1.1598,1.1593,1.1609,1.1557,1.1547,1.1555,1.1483,1.1469,1.146,1.145,1.1401,1.1391,1.1345,1.1354,1.1351,1.1382,1.1305,1.1376,1.1381,1.1385,1.1478,1.1491,1.1502,0,0,0,0,0,1.16,1.1639,1.161,1.1606,1.1566,1.1557,1.1552,1.1498,1.1463,1.1478,1.1441,1.1393,1.1382,1.1356,1.1352,1.1383,1.1374,1.1379,1.1385,1.1472,1.1488,1.1502,0,0,0,0,0,0,1.1696,1.1631,1.1598,1.1622,1.1596,1.1541,1.1559,1.1517,1.15,1.1492,1.1427,1.1417,1.1435,1.141,1.1382,1.1423,1.137,1.1376,1.1438,1.1453,1.1465,1.147,1.1304,0,0,0,0,0,1.172,1.1719,1.1662,1.1688,1.1677,1.1621,1.1614,1.1576,1.1546,1.1535,1.1497,1.147,1.146,1.1455,1.1443,1.1474,1.1462,1.1494,1.1506,1.1516,1.1521,1.1535,1.1549,1.1406,1.1406,1.1406,0,0,1.177,1.1734,1.1737,1.1706,1.1682,1.1681,1.1612,1.1614,1.1613,1.1535,1.1542,1.1515,1.148,1.1501,1.1508,1.148,1.1558,1.1523,1.1532,1.1531,1.1543,1.1556,1.1568,1.141,1.141,1.1409,0,0,1.1859,1.1832,1.1851,1.1828,1.1792,1.1754,1.1759,1.171,1.1689,1.1696,1.1637,1.1635,1.162,1.1597,1.1584,1.1667,1.1621,1.1664,1.1727,1.1742,1.1753,1.1763,1.1792,1.1803,1.167,1.167,1.167,0,1.1925,1.1922,1.1866,1.1872,1.186,1.179,1.1808,1.1789,1.1751,1.1744,1.1714,1.1693,1.1665,1.168,1.17,1.1692,1.1695,1.1669,1.1756,1.1765,1.1773,1.18,1.1811,1.1675,1.1675,1.1674,1.1674,0,1.2004,1.2003,1.2023,1.1988,1.1979,1.1991,1.1937,1.1934,1.1897,1.1863,1.1871,1.1834,1.1814,1.1815,1.1778,1.1824,1.1808,1.1769,1.1714,1.1793,1.1817,1.1827,1.1683,1.1681,1.168,1.1678,0,0,1.215,1.2086,1.2094,1.2077,1.2033,1.2031,1.204,1.2021,1.2019,1.1996,1.2002,1.1991,1.1954,1.1939,1.19,1.1913,1.198,1.1871,1.1869,1.1892,1.2029,1.2059,1.2072,1.1951,1.1953,1.1954,1.2032,0,1.2231,1.2243,1.2193,1.2218,1.2217,1.2151,1.2159,1.2133,1.2102,1.2096,1.2061,1.2054,1.2006,1.1997,1.2007,1.197,1.2007,1.1964,1.1955,1.1956,1.1965,1.2084,1.2115,1.219,1.2041,1.2042,1.2043,0,1.2325,1.2308,1.2333,1.2288,1.2285,1.2294,1.2272,1.2267,1.2236,1.2212,1.2197,1.2151,1.2157,1.2107,1.2114,1.2086,1.208,1.2061,1.2063,1.2059,1.2004,1.2083,1.2213,1.2224,1.2058,1.2057,1.2056,0,1.2429,1.2411,1.2424,1.2412,1.236,1.2367,1.2346,1.2313,1.2304,1.2285,1.2279,1.2261,1.2251,1.2239,1.219,1.2157,1.2202,1.2148,1.2182,1.2184,1.2193,1.2193,1.2324,1.2192,1.2191,1.2191,1.2191,0,1.2523,1.2541,1.247,1.2478,1.2496,1.2439,1.2459,1.2431,1.2402,1.2403,1.2345,1.2348,1.2283,1.2278,1.224,1.2252,1.2248,1.2228,1.2218,1.2233,1.2236,1.2227,1.222,1.2194,1.2193,1.2193,1.2192,0,1.2641,1.2594,1.2604,1.2554,1.2542,1.2558,1.2515,1.252,1.2486,1.2488,1.2485,1.2431,1.2423,1.2373,1.2353,1.2327,1.2352,1.2331,1.2363,1.2355,1.2392,1.239,1.2521,1.2535,1.2396,1.2397,1.2398,0,1.2703,1.2716,1.2668,1.2665,1.2646,1.2642,1.2633,1.2578,1.2571,1.2538,1.2547,1.2534,1.252,1.251,1.2468,1.2453,1.2431,1.2478,1.2428,1.2443,1.243,1.243,1.2431,1.2488,1.249,1.2492,1.2493,0,1.2819,1.2796,1.2786,1.2768,1.276,1.2743,1.2723,1.2723,1.2662,1.2658,1.2649,1.2638,1.2618,1.2606,1.2583,1.2561,1.2517,1.2509,1.2516,1.2531,1.2549,1.2539,1.2391,1.2506,1.2505,1.2504,1.2503,1.2503,1.291,1.2918,1.2886,1.2877,1.2856,1.2839,1.2841,1.2808,1.28,1.2779,1.2747,1.2743,1.2712,1.2677,1.2658,1.2654,1.2628,1.2639,1.2641,1.2644,1.2652,1.2551,1.265,1.2649,1.2649,1.2648,1.2648,0,1.3022,1.2999,1.2991,1.2965,1.2958,1.2919,1.2894,1.2891,1.2888,1.2863,1.2851,1.2841,1.2829,1.2788,1.2772,1.2776,1.2755,1.2773,1.2772,1.2767,1.2676,1.2671,1.279,1.279,1.279,1.279,1.279,1.279,1.308,1.3091,1.3064,1.3065,1.3041,1.3037,1.3026,1.301,1.299,1.2981,1.2971,1.2945,1.2913,1.2894,1.2882,1.287,1.2866,1.2891,1.2873,1.2788,1.2774,1.2761,1.2756,1.2891,1.2891,1.2964,1.2965,1.2965]}]]